Weather History for Iowa City, IA

Change the Weather History Date:

Tuesday, January 14, 2014

  Actual Average Record
Temperature  
Mean Temperature 27 °F 22 °F  
Max Temperature 38 °F 30 °F 55 °F (1952)
Min Temperature 16 °F 14 °F -23 °F (1957)
Degree Days  
Heating Degree Days 38 43  
Month to date heating degree days 705 602  
Since 1 July heating degree days 3495 3141  
Cooling Degree Days 0 0  
Month to date cooling degree days 0 0  
Year to date cooling degree days 0 0  
Moisture  
Dew Point 20 °F    
Average Humidity 76    
Maximum Humidity 89    
Minimum Humidity 63    
Precipitation  
Precipitation 0.06 in 0.02 in 0.24 in (1952)
Month to date precipitation 0.20 0.26  
Year to date precipitation 0.20 0.26  
Sea Level Pressure  
Sea Level Pressure 29.90 in    
Wind  
Wind Speed 18 mph (WNW)    
Max Wind Speed 37 mph    
Max Gust Speed 46 mph    
Visibility 8 miles    
Events Rain , Snow    
T = Trace of Precipitation, MM = Missing Value Source: NWS Daily Summary

Daily Weather History Graph

Daily Weather History Graph

Search for Another Location

Airport:

Trip Planner

Search our weather history database for the weather conditions in past years. The results will help you decide how hot, cold, wet, or windy it might be!

Date:

Astronomy

Jan. 14, 2014 Rise Set
Actual Time 7:31 AM CST 4:59 PM CST
Civil Twilight 7:00 AM CST 5:30 PM CST
Nautical Twilight 6:26 AM CST 6:04 PM CST
Astronomical Twilight 5:52 AM CST 6:38 PM CST
Moon 4:05 PM CST (1/14) 6:05 AM CST (1/14)
Length of Visible Light 10h 30m
Length of Day
9h 28m
Waxing Gibbous, 98% of the Moon is Illuminated
Jan 14
Waxing Gibbous
Jan 15
Full
Jan 23
Last Quarter
Jan 30
New
Feb 6
First Quarter

Hourly Weather History & Observations

Time (CST) Temp. Windchill Dew Point Humidity Pressure Visibility Wind Dir Wind Speed Gust Speed Precip Events Conditions
12:52 AM 30.9 °F 22.2 °F 26.1 °F 82% 29.72 in 10.0 mi South 10.4 mph - N/A   Overcast
1:52 AM 30.0 °F 24.1 °F 25.0 °F 82% 29.70 in 10.0 mi South 5.8 mph - N/A   Clear
2:52 AM 30.9 °F 22.8 °F 24.1 °F 76% 29.67 in 10.0 mi South 9.2 mph - N/A   Scattered Clouds
3:52 AM 30.9 °F 21.2 °F 25.0 °F 79% 29.63 in 10.0 mi South 12.7 mph - N/A   Mostly Cloudy
4:52 AM 33.1 °F 24.9 °F 26.1 °F 75% 29.63 in 10.0 mi SW 10.4 mph - N/A   Overcast
5:37 AM 33.8 °F 27.0 °F 30.2 °F 87% 29.61 in 6.0 mi WSW 8.1 mph - 0.05 in Rain Light Rain
5:52 AM 34.0 °F 26.6 °F 33.1 °F 96% 29.62 in 9.0 mi SW 9.2 mph - 0.05 in Rain Light Rain
6:52 AM 36.0 °F 27.5 °F 35.1 °F 97% 29.65 in 10.0 mi West 12.7 mph - 0.01 in   Overcast
7:52 AM 36.0 °F 25.3 °F 32.0 °F 86% 29.69 in 10.0 mi NW 19.6 mph 31.1 mph N/A   Overcast
8:52 AM 34.0 °F 21.5 °F 27.0 °F 75% 29.75 in 10.0 mi WNW 24.2 mph 31.1 mph N/A   Overcast
9:52 AM 32.0 °F 17.0 °F 21.9 °F 66% 29.79 in 10.0 mi WNW 33.4 mph 46.0 mph N/A   Overcast
10:52 AM 30.9 °F 17.5 °F 21.9 °F 69% 29.83 in 10.0 mi WNW 24.2 mph 39.1 mph N/A   Overcast
11:52 AM 30.0 °F 17.2 °F 19.9 °F 66% 29.85 in 10.0 mi NW 20.7 mph 40.3 mph N/A   Overcast
12:52 PM 28.9 °F 14.3 °F 19.9 °F 69% 29.86 in 10.0 mi West 26.5 mph 40.3 mph N/A   Overcast
1:41 PM 28.4 °F 13.3 °F 19.4 °F 69% 29.85 in 10.0 mi WNW 27.6 mph 39.1 mph N/A   Overcast
1:52 PM 28.9 °F 14.3 °F 18.0 °F 64% 29.88 in 10.0 mi WNW 26.5 mph 41.4 mph N/A   Overcast
2:52 PM 28.0 °F 13.6 °F 17.1 °F 63% 29.91 in 10.0 mi WNW 24.2 mph 38.0 mph N/A   Overcast
3:52 PM 27.0 °F 12.5 °F 17.1 °F 66% 29.95 in 10.0 mi NW 23.0 mph 36.8 mph N/A   Overcast
4:52 PM 25.0 °F 10.6 °F 17.1 °F 72% 29.99 in 8.0 mi WNW 20.7 mph 32.2 mph 0.00 in   Overcast
4:58 PM 24.8 °F 11.5 °F 17.6 °F 74% 29.97 in 1.5 mi NW 17.3 mph 31.1 mph 0.00 in Snow Light Snow
5:01 PM 24.8 °F 11.5 °F 19.4 °F 80% 29.97 in 1.0 mi NW 17.3 mph 31.1 mph 0.00 in Snow Light Snow
5:08 PM 24.8 °F 13.4 °F 19.4 °F 80% 29.98 in 1.2 mi NW 12.7 mph 24.2 mph 0.00 in Snow Light Snow
5:14 PM 24.8 °F 9.6 °F 19.4 °F 80% 29.98 in 2.0 mi NW 23.0 mph 32.2 mph 0.00 in Snow Light Snow
5:28 PM 24.8 °F 10.0 °F 19.4 °F 80% 29.98 in 3.0 mi WNW 21.9 mph 29.9 mph 0.00 in Snow Light Snow
5:39 PM 24.8 °F 10.7 °F 19.4 °F 80% 29.99 in 2.5 mi WNW 19.6 mph 26.5 mph 0.00 in Snow Light Snow
5:44 PM 24.8 °F 10.0 °F 17.6 °F 74% 29.99 in 3.0 mi WNW 21.9 mph 34.5 mph 0.00 in Snow Light Snow
5:52 PM 24.1 °F 9.4 °F 18.0 °F 77% 30.01 in 4.0 mi WNW 20.7 mph 34.5 mph 0.00 in Snow Light Snow
6:52 PM 23.0 °F 8.3 °F 16.0 °F 74% 30.05 in 7.0 mi WNW 19.6 mph 28.8 mph 0.00 in Snow Light Snow
7:02 PM 23.0 °F 7.6 °F 15.8 °F 74% 30.03 in 6.0 mi NW 21.9 mph 31.1 mph 0.00 in Snow Light Snow
7:43 PM 21.2 °F 6.0 °F 15.8 °F 80% 30.04 in 10.0 mi NW 19.6 mph 31.1 mph 0.00 in   Overcast
7:52 PM 21.9 °F 6.9 °F 15.1 °F 75% 30.07 in 9.0 mi WNW 19.6 mph 28.8 mph 0.00 in Snow Light Snow
8:52 PM 21.0 °F 6.2 °F 14.0 °F 74% 30.08 in 10.0 mi WNW 18.4 mph 24.2 mph 0.00 in   Overcast
9:52 PM 19.0 °F 3.2 °F 12.0 °F 74% 30.09 in 10.0 mi NW 19.6 mph 28.8 mph N/A   Overcast
10:35 PM 17.6 °F 2.7 °F 10.4 °F 73% 30.07 in 10.0 mi NW 16.1 mph 24.2 mph N/A   Scattered Clouds
10:52 PM 17.1 °F 2.0 °F 10.0 °F 74% 30.11 in 10.0 mi NW 16.1 mph 26.5 mph N/A   Clear
11:17 PM 17.6 °F 3.2 °F 10.4 °F 73% 30.08 in 10.0 mi NW 15.0 mph 26.5 mph N/A   Mostly Cloudy
11:52 PM 16.0 °F 1.7 °F 9.0 °F 74% 30.11 in 10.0 mi NW 13.8 mph - N/A   Overcast